[[{"header":{"parameterUnit":"m.s-1","parameterCategory":1,"la1":30.2991,"la2":30.254,"lo1":-89.0895,"lo2":-89.0444,"dy":0.0017,"dx":0.0017,"nx":28,"ny":28,"refTime":"2024-09-03T09:00:00:Z","depth":0,"parameterNumber":2,"parameterNumberName":"U-component_of_WINDS"},"data":[0,0,0,0,0,0,0,0,0,0,0,0,0,0,0,0,0,0,0,0,0,0,0,0,0,0,0,0,0,0,0,0,0,0,0,0,0,0,0,0,0,0,0,0,0,0,0,0,0,0,0,0,0,0,0,0,0,0,-3.0629,-3.0629,0,-3.0622,-3.0622,-3.0622,-3.0557,-3.0555,-3.0554,-3.0552,-3.0546,-3.0548,-3.0549,0,0,0,0,0,0,0,0,0,0,0,0,0,-3.0588,-3.0589,-3.0629,-3.0629,-3.0629,-3.0622,-3.0622,-3.0622,-3.0557,-3.0555,-3.0553,-3.0551,-3.0546,-3.0547,-3.0549,0,0,0,0,0,0,0,0,0,0,0,0,0,-3.0596,-3.0589,-3.0629,-3.0595,-3.0592,-3.0622,-3.0622,-3.0622,-3.0558,-3.0555,-3.0553,-3.0551,-3.0545,-3.0547,-3.0549,-3.0611,0,0,-3.0555,-3.0556,0,0,0,0,0,0,0,0,-3.0596,-3.0598,-3.06,-3.0598,-3.0594,-3.0588,-3.0605,-3.0618,-3.0558,-3.0571,-3.0552,-3.0549,-3.0562,-3.0563,-3.0567,-3.061,-3.061,-3.0556,-3.0557,-3.0558,-3.0558,0,0,0,0,0,0,0,-3.0595,-3.0598,-3.0626,-3.0601,-3.0597,-3.0582,-3.058,-3.0608,-3.058,-3.057,-3.0565,-3.0565,-3.056,-3.0565,-3.0566,-3.061,-3.0556,-3.0557,-3.0559,-3.0559,-3.0706,-3.0708,0,0,0,0,0,0,-3.0599,-3.0597,-3.0626,-3.0626,-3.0589,-3.0585,-3.0583,-3.0592,-3.058,-3.0576,-3.0567,-3.0562,-3.0563,-3.0564,-3.0566,-3.0637,-3.0558,-3.056,-3.0561,-3.0703,-3.0706,-3.0709,0,0,0,0,0,0,-3.0598,-3.0602,-3.0627,-3.061,-3.0612,-3.0588,-3.0599,-3.0594,-3.0598,-3.0578,-3.0573,-3.0577,-3.0561,-3.0563,-3.06,-3.0636,-3.0561,-3.0562,-3.07,-3.0704,-3.0708,-3.078,0,0,0,0,0,0,-3.0597,-3.0602,-3.0624,-3.0611,-3.0614,-3.066,-3.0601,-3.0595,-3.0602,-3.0595,-3.0586,-3.0582,-3.0559,-3.0598,-3.0602,-3.0637,-3.0564,-3.0696,-3.0702,-3.0706,-3.0774,-3.0786,-3.0796,0,0,0,0,0,-3.0596,-3.0645,-3.0626,-3.063,-3.064,-3.0662,-3.0664,-3.0636,-3.0605,-3.0627,-3.0615,-3.0582,-3.0632,-3.0602,-3.0607,-3.0643,-3.0694,-3.07,-3.0706,-3.0769,-3.0783,-3.0795,0,0,0,0,0,0,-3.0661,-3.0642,-3.0621,-3.0666,-3.0667,-3.0651,-3.0678,-3.0652,-3.0661,-3.0654,-3.0621,-3.0619,-3.0662,-3.0657,-3.0624,-3.0703,-3.0657,-3.0665,-3.0704,-3.0717,-3.0728,-3.0727,-3.0566,0,0,0,0,0,-3.0681,-3.07,-3.0683,-3.0725,-3.0726,-3.0703,-3.0711,-3.0691,-3.069,-3.0689,-3.0679,-3.068,-3.0696,-3.0707,-3.072,-3.0774,-3.0771,-3.0802,-3.0813,-3.0822,-3.0827,-3.0857,-3.087,-3.0729,-3.0729,-3.0729,0,0,-3.0722,-3.0714,-3.0728,-3.0738,-3.0735,-3.0757,-3.0703,-3.0727,-3.0743,-3.0693,-3.0727,-3.0721,-3.072,-3.0766,-3.0786,-3.0762,-3.0867,-3.0829,-3.0837,-3.0837,-3.0864,-3.0878,-3.0889,-3.0733,-3.0732,-3.0731,0,0,-3.0806,-3.0803,-3.0837,-3.0837,-3.0835,-3.0819,-3.0828,-3.0818,-3.0812,-3.0846,-3.0809,-3.0829,-3.0856,-3.0857,-3.0861,-3.0951,-3.0921,-3.0957,-3.1012,-3.1041,-3.1052,-3.1062,-3.1093,-3.1105,-3.0963,-3.0964,-3.0964,0,-3.0857,-3.0886,-3.0858,-3.0886,-3.0892,-3.0849,-3.0885,-3.0886,-3.0889,-3.0894,-3.0869,-3.0904,-3.09,-3.0946,-3.0969,-3.0974,-3.0983,-3.0956,-3.1053,-3.1062,-3.1071,-3.1101,-3.1113,-3.0968,-3.0967,-3.0967,-3.0966,0,-3.0949,-3.0971,-3.0999,-3.1003,-3.1013,-3.1044,-3.1022,-3.1036,-3.1016,-3.1004,-3.1041,-3.1036,-3.1048,-3.1058,-3.1038,-3.1102,-3.1088,-3.1059,-3.1012,-3.1089,-3.1116,-3.1128,-3.0974,-3.0972,-3.0971,-3.097,0,0,-3.107,-3.1061,-3.1072,-3.1074,-3.107,-3.1087,-3.1118,-3.113,-3.1142,-3.1147,-3.1172,-3.1199,-3.1172,-3.1177,-3.1158,-3.1184,-3.1255,-3.1151,-3.115,-3.1169,-3.1326,-3.1347,-3.136,-3.1237,-3.1239,-3.1241,-3.1326,0,-3.115,-3.1201,-3.1179,-3.1232,-3.1252,-3.1215,-3.1242,-3.1243,-3.1234,-3.1251,-3.1242,-3.126,-3.1224,-3.1227,-3.1251,-3.1241,-3.1286,-3.1235,-3.126,-3.1261,-3.1259,-3.1374,-3.1396,-3.1476,-3.1336,-3.1338,-3.1339,0,-3.1249,-3.1259,-3.1315,-3.131,-3.1317,-3.1342,-3.1353,-3.1369,-3.1371,-3.1363,-3.1371,-3.1347,-3.1378,-3.1335,-3.1377,-3.1344,-3.1353,-3.135,-3.1353,-3.1352,-3.1303,-3.1375,-3.1501,-3.1512,-3.1356,-3.1355,-3.1353,0,-3.1331,-3.1358,-3.1395,-3.1398,-3.1394,-3.1412,-3.1411,-3.1411,-3.1421,-3.1431,-3.1437,-3.1451,-3.1458,-3.147,-3.1451,-3.1421,-3.1497,-3.1452,-3.1491,-3.1492,-3.1506,-3.1505,-3.1633,-3.1516,-3.1516,-3.1516,-3.1515,0,-3.1422,-3.1457,-3.1432,-3.1454,-3.1494,-3.1469,-3.1509,-3.1504,-3.1505,-3.1527,-3.1496,-3.1518,-3.1492,-3.1512,-3.1497,-3.1535,-3.1539,-3.1534,-3.1529,-3.1535,-3.1536,-3.1539,-3.1532,-3.1519,-3.1518,-3.1517,-3.1517,0,-3.1518,-3.1502,-3.154,-3.1534,-3.1533,-3.1563,-3.1557,-3.1579,-3.1569,-3.1597,-3.1603,-3.1588,-3.1609,-3.1593,-3.1614,-3.1604,-3.1654,-3.1643,-3.1653,-3.1649,-3.1689,-3.1685,-3.1822,-3.1838,-3.1712,-3.1714,-3.1715,0,-3.1575,-3.1602,-3.1599,-3.1612,-3.1613,-3.1633,-3.1644,-3.1622,-3.1634,-3.1641,-3.1662,-3.1681,-3.1694,-3.1731,-3.1722,-3.1739,-3.1727,-3.1774,-3.1729,-3.1735,-3.1726,-3.1724,-3.1726,-3.1782,-3.1783,-3.1785,-3.1786,0,-3.1679,-3.1671,-3.1687,-3.1701,-3.1715,-3.1725,-3.1732,-3.1745,-3.1723,-3.1739,-3.1761,-3.1772,-3.1795,-3.1814,-3.1828,-3.1828,-3.1804,-3.1801,-3.181,-3.1815,-3.182,-3.1817,-3.1676,-3.1797,-3.1795,-3.1795,-3.1794,-3.1794,-3.1756,-3.1779,-3.1781,-3.18,-3.1805,-3.1813,-3.1833,-3.1828,-3.1846,-3.1862,-3.1849,-3.1876,-3.188,-3.1896,-3.19,-3.1921,-3.1901,-3.1916,-3.1919,-3.1922,-3.1928,-3.1819,-3.1924,-3.1923,-3.1923,-3.1923,-3.1922,0,-3.1858,-3.1858,-3.1877,-3.1889,-3.1905,-3.1883,-3.1891,-3.1906,-3.1929,-3.1936,-3.1951,-3.1977,-3.1997,-3.1991,-3.2009,-3.2027,-3.2017,-3.2033,-3.203,-3.203,-3.1944,-3.1933,-3.2041,-3.2041,-3.2041,-3.2041,-3.2041,-3.2041,-3.1912,-3.1949,-3.1942,-3.1981,-3.1982,-3.2007,-3.2014,-3.2023,-3.2028,-3.2059,-3.2075,-3.2072,-3.2074,-3.2092,-3.211,-3.2108,-3.2116,-3.2135,-3.2129,-3.2048,-3.2036,-3.2025,-3.2015,-3.2138,-3.2138,-3.2214,-3.2214,-3.2215]},{"header":{"parameterUnit":"m.s-1","parameterCategory":1,"la1":30.2991,"la2":30.254,"lo1":-89.0895,"lo2":-89.0444,"dy":0.0017,"dx":0.0017,"nx":28,"ny":28,"refTime":"2024-09-03T09:00:00:Z","depth":0,"parameterNumber":3,"parameterNumberName":"V-component_of_WINDS"},"data":[0,0,0,0,0,0,0,0,0,0,0,0,0,0,0,0,0,0,0,0,0,0,0,0,0,0,0,0,0,0,0,0,0,0,0,0,0,0,0,0,0,0,0,0,0,0,0,0,0,0,0,0,0,0,0,0,0,0,1.6635,1.6634,0,1.6607,1.6607,1.6606,1.6604,1.6604,1.6604,1.6605,1.6572,1.6571,1.657,0,0,0,0,0,0,0,0,0,0,0,0,0,1.6683,1.6682,1.6635,1.6634,1.6634,1.6607,1.6607,1.6606,1.6604,1.6604,1.6604,1.6605,1.6572,1.6571,1.657,0,0,0,0,0,0,0,0,0,0,0,0,0,1.6659,1.6681,1.6635,1.663,1.6629,1.6607,1.6607,1.6606,1.6604,1.6604,1.6604,1.6605,1.6573,1.6571,1.657,1.655,0,0,1.6564,1.6564,0,0,0,0,0,0,0,0,1.666,1.6657,1.6631,1.663,1.6629,1.6609,1.6612,1.6587,1.6603,1.6613,1.6605,1.6605,1.6584,1.6581,1.6575,1.6548,1.6547,1.6564,1.6563,1.6562,1.6562,0,0,0,0,0,0,0,1.6662,1.6658,1.6624,1.663,1.6629,1.6628,1.6625,1.6607,1.6596,1.6612,1.6612,1.6609,1.6583,1.6577,1.6574,1.6546,1.6564,1.6563,1.6562,1.6561,1.6503,1.6503,0,0,0,0,0,0,1.6665,1.666,1.6624,1.6623,1.6646,1.6627,1.6623,1.6615,1.6596,1.6594,1.6609,1.6609,1.6579,1.6576,1.6573,1.6549,1.6562,1.6561,1.656,1.6504,1.6503,1.6503,0,0,0,0,0,0,1.6666,1.6662,1.6626,1.6641,1.6637,1.6625,1.6616,1.6614,1.6608,1.6594,1.6591,1.6604,1.658,1.6575,1.6556,1.6548,1.656,1.6558,1.6504,1.6504,1.6503,1.6501,0,0,0,0,0,0,1.6667,1.6662,1.6655,1.6641,1.6636,1.661,1.6616,1.6613,1.6605,1.6605,1.6588,1.6586,1.658,1.6559,1.6554,1.6546,1.6557,1.6505,1.6504,1.6503,1.6502,1.65,1.6499,0,0,0,0,0,1.6669,1.6655,1.6655,1.6651,1.6627,1.661,1.6606,1.66,1.6604,1.6597,1.6588,1.6587,1.655,1.6557,1.6552,1.6543,1.6506,1.6504,1.6503,1.6502,1.6501,1.6499,0,0,0,0,0,0,1.6666,1.6653,1.6653,1.6633,1.6623,1.6609,1.6599,1.6598,1.6585,1.6586,1.6578,1.6574,1.6555,1.6547,1.6555,1.6523,1.6528,1.6526,1.6529,1.6527,1.6526,1.6528,1.6556,0,0,0,0,0,1.6664,1.6652,1.664,1.6624,1.6619,1.661,1.6602,1.6599,1.6587,1.6582,1.6572,1.656,1.6546,1.6536,1.6522,1.6501,1.6497,1.6493,1.6491,1.649,1.6488,1.6477,1.6475,1.6499,1.6499,1.6499,0,0,1.6657,1.6648,1.6641,1.6623,1.6615,1.6602,1.6606,1.6592,1.6583,1.658,1.6561,1.6554,1.6539,1.6519,1.651,1.6512,1.6481,1.6489,1.6488,1.6486,1.6476,1.6473,1.6471,1.6498,1.6498,1.6499,0,0,1.6639,1.6632,1.6618,1.661,1.6598,1.6592,1.6589,1.6576,1.6571,1.6553,1.6551,1.6539,1.6515,1.6505,1.6497,1.6478,1.6476,1.6473,1.6466,1.6455,1.6453,1.6451,1.6444,1.6442,1.6471,1.6471,1.6471,0,1.6632,1.6614,1.6611,1.6597,1.659,1.6589,1.6575,1.6566,1.655,1.6544,1.6547,1.6517,1.6507,1.6486,1.6481,1.6475,1.647,1.6474,1.6454,1.6452,1.645,1.6444,1.6441,1.6471,1.6471,1.6471,1.6471,0,1.6607,1.6594,1.6585,1.6571,1.6562,1.6548,1.6542,1.6533,1.6531,1.6525,1.6507,1.6496,1.648,1.6475,1.6472,1.6453,1.6454,1.6456,1.646,1.6448,1.6442,1.6439,1.6471,1.6471,1.6471,1.6471,0,0,1.6584,1.657,1.6567,1.6561,1.6548,1.6538,1.6524,1.6511,1.6504,1.6492,1.648,1.6461,1.6463,1.6454,1.645,1.644,1.6426,1.6443,1.6442,1.644,1.6405,1.6403,1.64,1.6426,1.6425,1.6425,1.6406,0,1.6565,1.6542,1.6539,1.6518,1.6507,1.6507,1.6495,1.6485,1.648,1.6469,1.6462,1.6449,1.6452,1.6447,1.6438,1.643,1.6419,1.6431,1.6413,1.6413,1.6416,1.6397,1.6395,1.6378,1.6403,1.6403,1.6403,0,1.6538,1.6529,1.6507,1.6498,1.6493,1.6482,1.647,1.646,1.6449,1.6446,1.6437,1.6435,1.642,1.6427,1.6406,1.6415,1.6408,1.6403,1.6402,1.6399,1.6406,1.6393,1.6372,1.6369,1.6399,1.6399,1.6399,0,1.6524,1.6505,1.6491,1.6486,1.6474,1.6467,1.6461,1.6452,1.6444,1.6433,1.6428,1.6415,1.6408,1.6398,1.6392,1.6397,1.6372,1.6378,1.6368,1.6368,1.6362,1.6362,1.6339,1.6359,1.6359,1.6359,1.6359,0,1.6502,1.6489,1.6484,1.6475,1.646,1.6457,1.6443,1.6437,1.6429,1.6418,1.6417,1.6407,1.64,1.6389,1.6384,1.6368,1.6365,1.6361,1.636,1.6361,1.6361,1.6355,1.6356,1.6358,1.6358,1.6358,1.6358,0,1.6483,1.6479,1.6463,1.6454,1.6452,1.6441,1.6434,1.6424,1.642,1.6406,1.6403,1.6396,1.6382,1.6376,1.6359,1.6356,1.6338,1.6338,1.6342,1.6341,1.6332,1.6333,1.6303,1.6299,1.6322,1.6322,1.6322,0,1.6468,1.6459,1.645,1.6443,1.6438,1.6428,1.6421,1.6418,1.641,1.6399,1.6391,1.6378,1.6367,1.6346,1.6339,1.6326,1.6325,1.6316,1.6323,1.6324,1.6324,1.6325,1.6324,1.6314,1.6314,1.6313,1.6313,0,1.6443,1.6443,1.6433,1.6424,1.6416,1.6408,1.64,1.6394,1.639,1.6381,1.6369,1.6361,1.6345,1.6332,1.6319,1.6313,1.6312,1.6311,1.6308,1.6309,1.6311,1.631,1.6338,1.6312,1.6312,1.6312,1.6312,1.6312,1.6426,1.6418,1.6411,1.64,1.6395,1.6388,1.6379,1.6374,1.6364,1.6352,1.6351,1.6338,1.6328,1.6311,1.6305,1.6294,1.6296,1.6291,1.629,1.6289,1.6288,1.6314,1.6291,1.6291,1.6291,1.6291,1.6291,0,1.6401,1.6397,1.6388,1.6378,1.637,1.6372,1.6364,1.6356,1.6345,1.6337,1.6328,1.6314,1.6302,1.6294,1.6282,1.6275,1.6274,1.6272,1.6272,1.627,1.6287,1.6291,1.6272,1.6272,1.6272,1.6272,1.6272,1.6272,1.6387,1.6373,1.6372,1.6355,1.6351,1.6339,1.6334,1.6328,1.6322,1.6307,1.6298,1.6294,1.6286,1.6273,1.6263,1.6261,1.6256,1.6253,1.6251,1.6267,1.6269,1.6271,1.6274,1.6252,1.6252,1.6235,1.6235,1.6235]}]]